Location: Angwan Shehu
(11.2514°N, 7.4613°E)
Time: 00:46:44
(UTC+00:00)

Daily predictions for brighter satellites

Satellite Brightness Start Highest point End
(mag) Time Altitude Azimuth Time Altitude Azimuth Time Altitude Azimuth
Cosmos 2322 Rocket 4.3 02:34:55 22° ENE 02:34:55 22° ENE 02:37:44 10° NE
Intelsat 5-1 Rocket 4.4 02:38:22 32° E 02:38:22 32° E 02:44:00 10° ESE
SL-16 R/B 4.1 02:43:38 24° NE 02:43:38 24° NE 02:45:58 10° NE
ARIANE 5 R/B 4.5 02:54:14 16° SSE 02:54:31 16° SE 03:00:15 10° ESE
Ariane H10-3 4.5 03:09:54 51° SW 03:12:33 63° S 10:53:04 10° E
Cosmos 1934 Rocket 3.9 03:13:56 10° N 03:20:00 83° E 03:26:09 10° S
Cosmos 1238 Rocket 3.8 03:16:20 10° N 03:22:29 75° E 03:27:44 10° S
Cosmos 967 Rocket 4.4 03:25:05 69° NNW 03:25:05 69° NNW 03:30:59 10° NNE
deb Chang Zheng 4 4.2 03:24:58 10° NNE 03:28:52 52° E 03:28:52 52° E
Meteor 1-27 Rocket 3.9 03:31:18 10° S 03:37:11 79° E 03:43:05 10° N
ADEOS 3.6 03:32:39 10° NNE 03:37:51 76° ESE 03:41:59 16° S
Milstar 3 Cent rocket 4.3 03:34:17 39° WSW 03:38:32 51° SSW 03:59:57 10° SE
Sakura Rocket 4.2 03:42:09 29° N 03:42:41 30° NNE 03:46:01 10° E
Cosmos 1605 Rocket 4.1 03:36:35 10° N 03:42:59 80° E 03:49:21 10° S
Cosmos 1535 Rocket 4.4 03:37:29 10° NNW 03:43:46 62° W 03:50:01 10° S
Cosmos 841 Rocket 3.5 03:43:08 23° S 03:46:22 81° E 03:51:34 10° NNE
Palapa 6 Rocket 4.3 03:43:42 41° WNW 03:46:42 87° NNE 03:54:49 10° ESE
Centaur Rocket 4.2 03:48:43 21° NE 03:48:43 21° NE 03:50:25 10° ENE
Ariane H10+ 4.3 03:50:21 22° S 03:50:32 22° S 03:54:14 10° SE
Cosmos 1862 Rocket 4.4 03:49:15 10° SSE 03:53:33 50° E 03:57:48 10° NNE
Cosmos 1727 Rocket 4.1 03:51:18 16° SSW 03:56:11 51° W 04:02:18 10° N
ALOS 2.2 03:52:25 10° NNE 03:57:05 84° E 04:01:44 10° S
Cosmos 1570 Rocket 3.9 03:53:41 18° SSW 03:57:37 77° WNW 04:02:54 10° N
IRIDIUM 106 4.2 03:53:12 10° N 03:58:24 76° W 04:03:36 10° S
Cosmos 2360 Rocket 2.1 03:56:31 14° SSW 04:01:30 76° WNW 04:07:09 10° NNE
Cosmos 1869 Rocket 3.4 03:57:38 10° N 04:01:57 87° E 04:06:16 10° S
H-2A R/B 2.1 03:59:19 10° S 04:03:23 50° WSW 04:07:33 10° NNW
ERS-2 2.1 04:00:59 10° SSE 04:04:37 81° ENE 04:08:16 10° N
Hubble Space Telescope 2.1 04:03:06 22° SSW 04:04:58 33° SSE 04:08:42 10° E
Cosmos 1484 Rocket 2.7 04:01:40 10° N 04:05:37 66° WNW 04:08:50 15° SSW
OAO 1 4.4 04:09:00 24° WNW 04:12:23 85° SW 04:17:53 10° SE
Delta 2 Rocket 4.4 04:10:45 17° SSW 04:12:38 29° SE 04:15:35 10° E
Cosmos 2082 4.2 04:09:02 17° NW 04:12:47 35° WSW 04:17:56 10° SSW
Meteor 1-31 Rocket 2.8 04:12:33 10° N 04:16:19 56° WNW 04:20:06 10° SSW
Cosmos 2322 Rocket 3.3 04:16:50 22° WNW 04:16:53 22° WNW 04:21:13 10° NNW
SJ 16-02 2.2 04:13:15 10° N 04:17:32 52° ENE 04:21:48 10° SSE
Cosmos 2123 Rocket 4.3 04:15:01 10° S 04:21:10 72° E 04:27:22 10° N
Maqsat-H 3.3 04:21:51 13° SW 04:24:21 20° S 04:27:06 10° ESE
SL-16 R/B 3.9 04:25:34 13° WNW 04:25:34 13° WNW 04:27:27 10° NW
OAO 3 Rocket 3.3 04:21:08 18° SW 04:24:48 81° SE 04:29:45 10° ENE
CZ-2C R/B 4.5 04:24:19 10° NW 04:24:56 11° NW 04:24:56 11° NW
Meteor PRIRODA 3.6 04:24:52 10° NNE 04:28:29 84° E 04:32:06 10° S
BLOCK DM-SL 4.4 04:23:54 16° WSW 04:29:12 47° S 04:35:39 10° E
Cosmos 540 Rocket 4.2 04:26:23 13° SW 04:30:14 30° WNW 04:34:43 10° NNW
METEOR-M 4.3 04:26:13 10° N 04:31:19 48° WNW 04:36:26 10° SSW
FENGYUN 3A 4.2 04:29:47 10° NNW 04:34:38 35° WNW 04:39:30 10° SW
Delta 202 4.3 04:30:53 15° WNW 04:34:55 42° N 04:40:13 10° ENE
SJ-12 4.1 04:34:38 10° N 04:38:38 51° WNW 04:42:40 10° SSW
CZ-4B R/B 1.2 04:35:52 10° S 04:38:51 52° W 04:41:51 10° NNW
Cosmos 2263 Rocket 2.5 04:33:25 10° N 04:39:03 74° ENE 04:44:44 10° SSE
Cosmos 1459 Rocket 4.1 04:33:09 10° N 04:39:11 80° E 04:45:13 10° S
Shenzhou-11 Module 2.5 04:45:21 16° W 04:46:19 22° SW 04:48:04 10° S
Cosmos 1703 Rocket 3.7 04:44:28 10° S 04:48:46 78° E 04:53:04 10° N
Meteor 1-18 Rocket 4.2 04:44:32 10° S 04:50:08 81° W 04:55:40 10° N
Cosmos 2227 4.1 04:44:36 10° NNW 04:50:12 76° WSW 04:55:48 10° S
COSMOS 2428 2.9 04:44:33 10° SSW 04:50:13 79° ESE 04:55:55 10° NNE
ADEOS Rocket 3.6 04:43:15 10° S 04:50:28 49° WSW 04:57:06 10° NNW
USA 234 3.5 04:45:01 10° SE 04:51:32 79° NE 04:58:04 10° NNW
Cosmos 1666 3.4 04:48:22 10° NNW 04:51:42 30° W 04:55:01 10° SSW
Cosmos 2242 Rocket 3.5 04:47:41 10° SSW 04:52:02 64° W 04:56:23 10° N
Cosmos 2219 Rocket 2.2 04:47:42 10° SSW 04:53:19 80° WNW 04:58:58 10° NNE
H-2A R/B 2.9 04:54:37 10° NNE 04:58:17 75° E 05:01:56 10° S
Meteor 1-19 Rocket 4.1 04:53:40 10° SSW 04:59:02 71° W 05:04:27 10° N
Cosmos 2333 Rocket 2.3 04:54:54 10° SSW 05:00:33 59° WNW 05:06:13 10° N
GEOS 3 Rocket 4.4 04:55:52 10° N 05:00:37 33° WNW 05:05:17 10° WSW
Ariane 44LP R/B 4.2 04:44:18 10° W 05:01:00 47° SSW 05:04:32 10° ESE
USA 281 3.3 04:54:35 10° N 05:01:03 63° WNW 05:07:30 10° SSW
ARIANE 5 R/B 4.1 05:13:44 10° W 05:53:25 70° S 05:58:52 10° ESE
